• In Hungary
  • List of Countries
  • For 7 days
  • Water Temperature
  • Satellite Maps
  • Weather Map
  • News
  • Weather Widgets
  • user-avatar
    Login

    Hourly Weather SanFrancisco

    Today, 17 December, Sunday

    Time Temperature Precipitation Wind Pressure Humidity
    00:00 +11°C° 0 mm 1 mps 581 mmHg 77%
    01:00 +9°C° 0 mm 2 mps 581 mmHg 77%
    02:00 +9°C° 0 mm 2 mps 581 mmHg 77%
    03:00 +9°C° 0 mm 2 mps 581 mmHg 76%
    04:00 +9°C° 0 mm 2 mps 581 mmHg 76%
    05:00 +9°C° 0 mm 2 mps 581 mmHg 73%
    06:00 +9°C° 0 mm 2 mps 582 mmHg 69%
    07:00 +10°C° 0 mm 2 mps 582 mmHg 66%
    08:00 +13°C° 0 mm 2 mps 584 mmHg 58%
    09:00 +15°C° 0 mm 2 mps 585 mmHg 50%
    10:00 +17°C° 0 mm 3 mps 586 mmHg 42%
    11:00 +18°C° 0 mm 3 mps 586 mmHg 41%
    12:00 +19°C° 0 mm 3 mps 585 mmHg 39%
    13:00 +20°C° 0 mm 3 mps 585 mmHg 38%
    14:00 +19°C° 0 mm 3 mps 585 mmHg 40%
    15:00 +18°C° 0 mm 2 mps 584 mmHg 42%
    16:00 +18°C° 0 mm 2 mps 583 mmHg 44%
    17:00 +16°C° 0 mm 2 mps 582 mmHg 51%
    18:00 +13°C° 0 mm 2 mps 582 mmHg 59%
    19:00 +11°C° 0 mm 1 mps 581 mmHg 66%
    20:00 +10°C° 0 mm 2 mps 581 mmHg 65%
    21:00 +10°C° 0 mm 2 mps 581 mmHg 64%
    22:00 +9°C° 0 mm 2 mps 581 mmHg 64%
    23:00 +9°C° 0 mm 2 mps 581 mmHg 63%

    Tomorrow, 18 December, Monday

    Time Temperature Precipitation Wind Pressure Humidity
    00:00 +9°C° 0 mm 2 mps 581 mmHg 63%
    01:00 +8°C° 0 mm 2 mps 581 mmHg 63%
    02:00 +8°C° 0 mm 2 mps 580 mmHg 59%
    03:00 +8°C° 0 mm 2 mps 580 mmHg 56%
    04:00 +7°C° 0 mm 2 mps 580 mmHg 53%
    05:00 +8°C° 0 mm 2 mps 581 mmHg 50%
    06:00 +9°C° 0 mm 2 mps 581 mmHg 47%
    07:00 +10°C° 0 mm 2 mps 582 mmHg 44%
    08:00 +13°C° 0 mm 2 mps 583 mmHg 43%
    09:00 +15°C° 0 mm 2 mps 585 mmHg 43%
    10:00 +18°C° 0 mm 3 mps 586 mmHg 43%
    11:00 +19°C° 0 mm 3 mps 586 mmHg 42%
    12:00 +19°C° 0 mm 3 mps 586 mmHg 42%
    13:00 +20°C° 0 mm 3 mps 585 mmHg 41%
    14:00 +19°C° 0 mm 3 mps 585 mmHg 43%
    15:00 +19°C° 0 mm 2 mps 584 mmHg 45%
    16:00 +18°C° 0 mm 2 mps 583 mmHg 47%
    17:00 +16°C° 0 mm 2 mps 583 mmHg 55%
    18:00 +14°C° 0 mm 2 mps 582 mmHg 63%
    19:00 +12°C° 0 mm 1 mps 581 mmHg 71%
    20:00 +11°C° 0 mm 1 mps 582 mmHg 71%
    21:00 +11°C° 0 mm 1 mps 582 mmHg 70%
    22:00 +11°C° 0 mm 1 mps 582 mmHg 70%
    23:00 +10°C° 0 mm 2 mps 582 mmHg 69%

    Day after tomorrow, 19 December, Tuesday

    Time Temperature Precipitation Wind Pressure Humidity
    00:00 +9°C° 0 mm 2 mps 582 mmHg 69%
    01:00 +9°C° 0 mm 2 mps 581 mmHg 69%
    02:00 +9°C° 0 mm 2 mps 581 mmHg 66%
    03:00 +9°C° 0 mm 2 mps 581 mmHg 64%
    04:00 +8°C° 0 mm 2 mps 580 mmHg 62%
    05:00 +9°C° 0 mm 2 mps 581 mmHg 59%
    06:00 +10°C° 0 mm 2 mps 582 mmHg 56%
    07:00 +11°C° 0 mm 1 mps 583 mmHg 53%
    08:00 +14°C° 0 mm 2 mps 584 mmHg 51%
    09:00 +16°C° 0 mm 2 mps 585 mmHg 48%
    10:00 +18°C° 0 mm 2 mps 586 mmHg 46%
    11:00 +19°C° 0 mm 3 mps 586 mmHg 44%
    12:00 +20°C° 0 mm 3 mps 586 mmHg 43%
    13:00 +20°C° 0 mm 3 mps 585 mmHg 42%
    14:00 +20°C° 0 mm 2 mps 584 mmHg 44%
    15:00 +19°C° 0 mm 2 mps 584 mmHg 47%
    16:00 +19°C° 0 mm 2 mps 583 mmHg 49%
    17:00 +16°C° 0 mm 2 mps 582 mmHg 57%
    18:00 +14°C° 0 mm 2 mps 582 mmHg 66%
    19:00 +12°C° 0 mm 1 mps 581 mmHg 75%
    20:00 +12°C° 0 mm 1 mps 581 mmHg 74%
    21:00 +11°C° 0 mm 1 mps 582 mmHg 73%
    22:00 +11°C° 0 mm 1 mps 582 mmHg 73%
    23:00 +11°C° 0 mm 1 mps 582 mmHg 72%

    20 December, Wednesday

    Time Temperature Precipitation Wind Pressure Humidity
    00:00 +10°C° 0 mm 2 mps 581 mmHg 72%
    01:00 +9°C° 0 mm 2 mps 581 mmHg 71%
    02:00 +9°C° 0 mm 2 mps 581 mmHg 70%
    03:00 +9°C° 0 mm 2 mps 580 mmHg 69%
    04:00 +10°C° 0 mm 1 mps 580 mmHg 68%
    05:00 +10°C° 0 mm 1 mps 581 mmHg 66%
    06:00 +11°C° 0 mm 1 mps 582 mmHg 63%
    07:00 +12°C° 0 mm 1 mps 582 mmHg 61%
    08:00 +14°C° 0 mm 2 mps 584 mmHg 57%
    09:00 +16°C° 0 mm 2 mps 585 mmHg 53%
    10:00 +18°C° 0 mm 2 mps 586 mmHg 49%
    11:00 +19°C° 0 mm 3 mps 585 mmHg 49%
    12:00 +19°C° 0 mm 3 mps 585 mmHg 49%
    13:00 +20°C° 0 mm 3 mps 584 mmHg 49%
    14:00 +19°C° 0 mm 2 mps 583 mmHg 51%
    15:00 +19°C° 0 mm 2 mps 583 mmHg 53%
    16:00 +18°C° 0 mm 2 mps 582 mmHg 55%
    17:00 +16°C° 0 mm 2 mps 581 mmHg 63%
    18:00 +14°C° 0 mm 1 mps 581 mmHg 71%
    19:00 +12°C° 0 mm 1 mps 581 mmHg 79%
    20:00 +12°C° 0 mm 1 mps 581 mmHg 79%
    21:00 +12°C° 0 mm 1 mps 581 mmHg 79%
    22:00 +12°C° 0 mm 1 mps 581 mmHg 79%
    23:00 +12°C° 0 mm 1 mps 581 mmHg 79%

    21 December, Thursday

    Time Temperature Precipitation Wind Pressure Humidity
    00:00 +11°C° 0 mm 1 mps 581 mmHg 80%
    01:00 +11°C° 0 mm 1 mps 580 mmHg 80%
    02:00 +11°C° 0 mm 1 mps 580 mmHg 80%
    03:00 +11°C° 0 mm 1 mps 580 mmHg 80%
    04:00 +11°C° 0 mm 1 mps 580 mmHg 79%
    05:00 +11°C° 0 mm 1 mps 581 mmHg 77%
    06:00 +11°C° 0 mm 1 mps 581 mmHg 74%
    07:00 +12°C° 0 mm 1 mps 582 mmHg 71%
    08:00 +14°C° 0 mm 2 mps 583 mmHg 65%
    09:00 +16°C° 0 mm 2 mps 584 mmHg 60%
    10:00 +18°C° 0 mm 2 mps 585 mmHg 54%
    11:00 +18°C° 0 mm 2 mps 585 mmHg 54%
    12:00 +18°C° 0 mm 2 mps 584 mmHg 54%
    13:00 +19°C° 0 mm 2 mps 584 mmHg 54%
    14:00 +19°C° 0 mm 2 mps 583 mmHg 55%
    15:00 +18°C° 0 mm 2 mps 583 mmHg 56%
    16:00 +18°C° 0 mm 2 mps 582 mmHg 57%
    17:00 +16°C° 0 mm 2 mps 582 mmHg 64%
    18:00 +14°C° 0 mm 1 mps 581 mmHg 71%
    19:00 +13°C° 0 mm 1 mps 581 mmHg 79%
    20:00 +13°C° 0.1 mm 1 mps 581 mmHg 79%
    21:00 +12°C° 0.1 mm 1 mps 581 mmHg 80%
    22:00 +12°C° 0.1 mm 1 mps 582 mmHg 80%
    23:00 +12°C° 0.1 mm 1 mps 581 mmHg 81%

    22 December, Friday

    Time Temperature Precipitation Wind Pressure Humidity
    00:00 +11°C° 0.1 mm 1 mps 581 mmHg 81%
    01:00 +11°C° 0.1 mm 1 mps 581 mmHg 82%
    02:00 +11°C° 0 mm 1 mps 580 mmHg 81%
    03:00 +11°C° 0 mm 1 mps 580 mmHg 81%
    04:00 +10°C° 0 mm 1 mps 580 mmHg 81%
    05:00 +11°C° 0 mm 1 mps 581 mmHg 79%
    06:00 +11°C° 0 mm 1 mps 582 mmHg 76%
    07:00 +12°C° 0 mm 1 mps 582 mmHg 74%
    08:00 +14°C° 0 mm 2 mps 583 mmHg 67%
    09:00 +16°C° 0 mm 2 mps 584 mmHg 60%
    10:00 +17°C° 0 mm 2 mps 585 mmHg 54%
    11:00 +18°C° 0 mm 2 mps 585 mmHg 52%
    12:00 +19°C° 0 mm 2 mps 584 mmHg 51%
    13:00 +19°C° 0 mm 2 mps 584 mmHg 50%
    14:00 +19°C° 0 mm 2 mps 583 mmHg 52%
    15:00 +18°C° 0 mm 2 mps 583 mmHg 54%
    16:00 +18°C° 0 mm 2 mps 582 mmHg 57%
    17:00 +16°C° 0 mm 1 mps 582 mmHg 64%
    18:00 +14°C° 0 mm 1 mps 582 mmHg 72%
    19:00 +12°C° 0 mm 1 mps 581 mmHg 79%
    20:00 +12°C° 0.1 mm 1 mps 581 mmHg 80%
    21:00 +12°C° 0.1 mm 1 mps 582 mmHg 81%
    22:00 +12°C° 0.1 mm 1 mps 582 mmHg 82%
    23:00 +12°C° 0.1 mm 1 mps 582 mmHg 83%
    Show more